When you browse on this site, cookies collect data to enhance your experience and personalize the content and advertising you see.
Visit our Privacy Policy to learn more. By continuing to use the site, you agree to this use of cookies and data.
  • In Latvia
  • List of Countries
  • For 7 days
  • Water Temperature
  • Weather Map
  • Weather Widgets
  • user-avatar
    Login

    Hourly Weather Novoscherbakov

    Today, 25 August, Sunday

    Time Temperature Precipitation Wind Pressure Humidity
    00:00 +27°C° 0 mm 5 mps 753 mmHg 48%
    01:00 +26°C° 0 mm 5 mps 753 mmHg 51%
    02:00 +26°C° 0 mm 5 mps 753 mmHg 53%
    03:00 +25°C° 0 mm 4 mps 753 mmHg 56%
    04:00 +25°C° 0 mm 5 mps 753 mmHg 57%
    05:00 +23°C° 0 mm 5 mps 753 mmHg 59%
    06:00 +23°C° 0 mm 5 mps 753 mmHg 61%
    07:00 +26°C° 0 mm 5 mps 754 mmHg 56%
    08:00 +27°C° 0 mm 5 mps 754 mmHg 51%
    09:00 +29°C° 0 mm 5 mps 754 mmHg 46%
    10:00 +32°C° 0 mm 5 mps 754 mmHg 42%
    11:00 +33°C° 0 mm 5 mps 754 mmHg 37%
    12:00 +35°C° 0 mm 5 mps 754 mmHg 33%
    13:00 +35°C° 0 mm 5 mps 754 mmHg 32%
    14:00 +36°C° 0 mm 6 mps 754 mmHg 31%
    15:00 +36°C° 0 mm 6 mps 754 mmHg 30%
    16:00 +35°C° 0 mm 5 mps 754 mmHg 32%
    17:00 +34°C° 0 mm 5 mps 754 mmHg 33%
    18:00 +34°C° 0 mm 5 mps 754 mmHg 35%
    19:00 +32°C° 0 mm 5 mps 754 mmHg 38%
    20:00 +29°C° 0 mm 6 mps 755 mmHg 40%
    21:00 +28°C° 0 mm 6 mps 755 mmHg 43%
    22:00 +27°C° 0 mm 6 mps 755 mmHg 42%
    23:00 +26°C° 0 mm 5 mps 755 mmHg 40%

    Tomorrow, 26 August, Monday

    Time Temperature Precipitation Wind Pressure Humidity
    00:00 +25°C° 0 mm 5 mps 756 mmHg 39%
    01:00 +23°C° 0 mm 5 mps 756 mmHg 41%
    02:00 +23°C° 0 mm 5 mps 756 mmHg 42%
    03:00 +23°C° 0 mm 5 mps 756 mmHg 43%
    04:00 +22°C° 0 mm 4 mps 756 mmHg 47%
    05:00 +21°C° 0 mm 4 mps 756 mmHg 51%
    06:00 +21°C° 0 mm 4 mps 756 mmHg 54%
    07:00 +22°C° 0 mm 5 mps 757 mmHg 52%
    08:00 +23°C° 0 mm 5 mps 757 mmHg 49%
    09:00 +26°C° 0 mm 5 mps 757 mmHg 46%
    10:00 +27°C° 0 mm 5 mps 757 mmHg 42%
    11:00 +29°C° 0 mm 5 mps 757 mmHg 38%
    12:00 +30°C° 0 mm 5 mps 757 mmHg 34%
    13:00 +32°C° 0 mm 5 mps 757 mmHg 32%
    14:00 +32°C° 0 mm 5 mps 757 mmHg 30%
    15:00 +33°C° 0 mm 5 mps 757 mmHg 29%
    16:00 +32°C° 0 mm 5 mps 756 mmHg 30%
    17:00 +30°C° 0 mm 5 mps 756 mmHg 31%
    18:00 +30°C° 0 mm 5 mps 756 mmHg 32%
    19:00 +28°C° 0 mm 5 mps 756 mmHg 35%
    20:00 +26°C° 0 mm 4 mps 756 mmHg 38%
    21:00 +23°C° 0 mm 4 mps 756 mmHg 41%
    22:00 +22°C° 0 mm 4 mps 756 mmHg 40%
    23:00 +22°C° 0 mm 4 mps 756 mmHg 40%

    Day after tomorrow, 27 August, Tuesday

    Time Temperature Precipitation Wind Pressure Humidity
    00:00 +21°C° 0 mm 4 mps 756 mmHg 39%
    01:00 +21°C° 0 mm 4 mps 756 mmHg 39%
    02:00 +20°C° 0 mm 4 mps 756 mmHg 40%
    03:00 +20°C° 0 mm 4 mps 756 mmHg 40%
    04:00 +19°C° 0 mm 4 mps 755 mmHg 42%
    05:00 +19°C° 0 mm 4 mps 755 mmHg 44%
    06:00 +18°C° 0 mm 3 mps 755 mmHg 46%
    07:00 +21°C° 0 mm 4 mps 755 mmHg 41%
    08:00 +23°C° 0 mm 4 mps 755 mmHg 37%
    09:00 +26°C° 0 mm 4 mps 755 mmHg 33%
    10:00 +28°C° 0 mm 3 mps 755 mmHg 31%
    11:00 +29°C° 0 mm 3 mps 755 mmHg 29%
    12:00 +30°C° 0 mm 3 mps 754 mmHg 27%
    13:00 +31°C° 0 mm 3 mps 754 mmHg 25%
    14:00 +31°C° 0 mm 3 mps 754 mmHg 23%
    15:00 +33°C° 0 mm 3 mps 753 mmHg 21%
    16:00 +32°C° 0 mm 4 mps 753 mmHg 22%
    17:00 +30°C° 0 mm 4 mps 753 mmHg 22%
    18:00 +29°C° 0 mm 5 mps 753 mmHg 22%
    19:00 +27°C° 0 mm 5 mps 753 mmHg 26%
    20:00 +25°C° 0 mm 4 mps 753 mmHg 29%
    21:00 +22°C° 0 mm 4 mps 753 mmHg 33%
    22:00 +21°C° 0 mm 4 mps 753 mmHg 36%
    23:00 +20°C° 0 mm 3 mps 753 mmHg 40%

    28 August, Wednesday

    Time Temperature Precipitation Wind Pressure Humidity
    00:00 +20°C° 0 mm 3 mps 753 mmHg 43%
    01:00 +19°C° 0 mm 3 mps 753 mmHg 45%
    02:00 +18°C° 0 mm 3 mps 753 mmHg 48%
    03:00 +18°C° 0 mm 3 mps 752 mmHg 50%
    04:00 +18°C° 0 mm 3 mps 752 mmHg 54%
    05:00 +17°C° 0 mm 3 mps 753 mmHg 57%
    06:00 +17°C° 0 mm 3 mps 753 mmHg 61%
    07:00 +19°C° 0 mm 4 mps 753 mmHg 58%
    08:00 +21°C° 0 mm 4 mps 753 mmHg 55%
    09:00 +23°C° 0 mm 5 mps 753 mmHg 53%
    10:00 +25°C° 0 mm 5 mps 753 mmHg 45%
    11:00 +26°C° 0 mm 5 mps 753 mmHg 38%
    12:00 +27°C° 0 mm 6 mps 753 mmHg 31%
    13:00 +27°C° 0 mm 6 mps 753 mmHg 31%
    14:00 +27°C° 0 mm 6 mps 753 mmHg 30%
    15:00 +28°C° 0 mm 6 mps 753 mmHg 29%
    16:00 +27°C° 0 mm 6 mps 753 mmHg 29%
    17:00 +26°C° 0 mm 6 mps 753 mmHg 29%
    18:00 +25°C° 0 mm 5 mps 753 mmHg 29%
    19:00 +22°C° 0 mm 5 mps 753 mmHg 33%
    20:00 +20°C° 0 mm 4 mps 754 mmHg 37%
    21:00 +18°C° 0 mm 4 mps 754 mmHg 40%
    22:00 +17°C° 0 mm 4 mps 754 mmHg 41%
    23:00 +15°C° 0 mm 4 mps 755 mmHg 42%

    29 August, Thursday

    Time Temperature Precipitation Wind Pressure Humidity
    00:00 +14°C° 0 mm 4 mps 755 mmHg 42%
    01:00 +13°C° 0 mm 4 mps 755 mmHg 46%
    02:00 +12°C° 0 mm 4 mps 755 mmHg 50%
    03:00 +11°C° 0 mm 4 mps 755 mmHg 54%
    04:00 +11°C° 0 mm 4 mps 755 mmHg 55%
    05:00 +10°C° 0 mm 4 mps 755 mmHg 57%
    06:00 +8°C° 0 mm 4 mps 756 mmHg 58%
    07:00 +11°C° 0 mm 4 mps 756 mmHg 53%
    08:00 +12°C° 0 mm 5 mps 756 mmHg 48%
    09:00 +14°C° 0 mm 5 mps 756 mmHg 43%
    10:00 +15°C° 0 mm 5 mps 756 mmHg 39%
    11:00 +17°C° 0 mm 5 mps 756 mmHg 36%
    12:00 +20°C° 0 mm 5 mps 756 mmHg 32%
    13:00 +20°C° 0 mm 5 mps 756 mmHg 31%
    14:00 +21°C° 0 mm 5 mps 755 mmHg 30%
    15:00 +22°C° 0 mm 5 mps 755 mmHg 28%
    16:00 +21°C° 0 mm 5 mps 755 mmHg 30%
    17:00 +21°C° 0 mm 5 mps 755 mmHg 31%
    18:00 +20°C° 0 mm 5 mps 755 mmHg 33%
    19:00 +19°C° 0 mm 5 mps 755 mmHg 36%
    20:00 +17°C° 0 mm 4 mps 755 mmHg 39%
    21:00 +15°C° 0 mm 4 mps 756 mmHg 42%
    22:00 +14°C° 0 mm 4 mps 756 mmHg 45%
    23:00 +13°C° 0 mm 4 mps 756 mmHg 47%

    30 August, Friday

    Time Temperature Precipitation Wind Pressure Humidity
    00:00 +12°C° 0 mm 4 mps 756 mmHg 50%
    01:00 +12°C° 0 mm 4 mps 756 mmHg 52%
    02:00 +11°C° 0 mm 4 mps 756 mmHg 54%
    03:00 +10°C° 0 mm 4 mps 756 mmHg 56%
    04:00 +10°C° 0 mm 4 mps 756 mmHg 59%
    05:00 +8°C° 0 mm 4 mps 756 mmHg 61%
    06:00 +8°C° 0 mm 4 mps 756 mmHg 63%
    07:00 +10°C° 0 mm 5 mps 757 mmHg 56%
    08:00 +13°C° 0 mm 5 mps 757 mmHg 49%
    09:00 +15°C° 0 mm 6 mps 757 mmHg 43%
    10:00 +16°C° 0 mm 6 mps 757 mmHg 40%
    11:00 +19°C° 0 mm 6 mps 757 mmHg 36%
    12:00 +20°C° 0 mm 6 mps 757 mmHg 33%
    13:00 +21°C° 0 mm 6 mps 756 mmHg 32%
    14:00 +22°C° 0 mm 6 mps 756 mmHg 31%
    15:00 +22°C° 0 mm 5 mps 756 mmHg 30%
    16:00 +22°C° 0 mm 5 mps 756 mmHg 32%
    17:00 +21°C° 0 mm 5 mps 755 mmHg 34%
    18:00 +20°C° 0 mm 5 mps 755 mmHg 36%
    19:00 +19°C° 0 mm 5 mps 755 mmHg 42%
    20:00 +17°C° 0 mm 4 mps 756 mmHg 48%
    21:00 +14°C° 0 mm 3 mps 756 mmHg 54%
    22:00 +14°C° 0 mm 3 mps 756 mmHg 56%
    23:00 +13°C° 0 mm 3 mps 756 mmHg 58%
    Show more